EW0734 Weather Reports


time (UTC)temp
F
wind
direction
speed
knots
gust
knots
rain 1hr
in
rain 24hr
in
rain mn
in
humidity
%
barometer
mb
20260831085517 0 0.0 0.0 0.00 0.00 0.00
20260831085026 0 0.0 0.0 0.00 0.00 0.00
20260831084046 0 0.0 0.0 0.00 0.00 0.00
20260831083540 0 0.0 0.0 0.00 0.00 0.00
20260831083016 0 0.0 0.0 0.00 0.00 0.00
20260831082526 0 0.0 0.0 0.00 0.00 0.00
20260831081526 0 0.0 0.0 0.00 0.00 0.00
20260831081027 0 0.0 0.0 0.00 0.00 0.00
20260831080604 0 0.0 0.0 0.00 0.00 0.00
20260831080026 0 0.0 0.0 0.00 0.00 0.00
20260831075026 0 0.0 0.0 0.00 0.00 0.00
20260831074547 0 0.0 0.0 0.00 0.00 0.00
20260831074043 0 0.0 0.0 0.00 0.00 0.00
20260831073526 0 0.0 0.0 0.00 0.00 0.00
20260831072526 0 0.0 0.0 0.00 0.00 0.00
20260831072040 0 0.0 0.0 0.00 0.00 0.00
20260831071517 0 0.0 0.0 0.00 0.00 0.00
20260831071026 0 0.0 0.0 0.00 0.00 0.00
20260831070026 0 0.0 0.0 0.00 0.00 0.00
20260831065509 0 0.0 0.0 0.00 0.00 0.00 84
20260831065104 70 0.0 0.0 0.00 0.00 0.00 84 1016.7
20260831064527 71 0.0 0.0 0.00 0.00 0.00 84 1016.7
20260831063548 71 0.0 0.0 0.00 0.00 0.00 85 1016.7
20260831062527 71 0.0 0.0 0.00 0.00 0.00 85 1016.8
20260831061528 71 0.0 0.0 0.00 0.00 0.00 85 1016.8
20260831060527 71 0.0 0.0 0.00 0.00 0.00 87 1016.9
20260831055547 72 0.0 0.0 0.00 0.00 0.00 87 1016.9
20260831054527 72 0.0 0.0 0.00 0.00 0.00 88 1017.0
20260831053527 72 0.0 0.0 0.00 0.00 0.00 89 1017.0
20260831052528 72 0.0 0.0 0.00 0.00 0.00 90 1017.2
20260831051527 72 0.0 0.0 0.00 0.00 0.00 91 1017.3
20260831050527 72 0.0 0.0 0.00 0.00 0.00 91 1017.3
20260831045527 73 0.0 0.0 0.00 0.00 0.00 92 1017.4
20260831044547 73 0.0 0.0 0.00 0.00 0.00 92 1017.3
20260831043527 73 0.0 0.0 0.00 0.00 0.00 92 1017.2
20260831042547 73 0.0 0.0 0.00 0.00 0.00 92 1017.1
20260831041547 73 0.0 0.0 0.00 0.00 0.00 92 1017.3
20260831040537 73 0.0 0.0 0.00 0.00 0.00 92 1017.3
20260831035527 73 0.0 0.0 0.00 0.00 0.00 92 1017.3
20260831034528 73 0.0 0.0 0.00 0.00 0.00 92 1017.4
20260831033527 73 0.0 0.0 0.00 0.00 0.00 92 1017.8
20260831032528 73 0.0 0.0 0.00 0.00 0.00 92 1017.9
20260831031528 73 0.0 0.0 0.00 0.00 0.00 92 1017.8
20260831030527 73 0.0 0.0 0.00 0.00 0.00 92 1018.0
20260831025527 73 0.0 0.0 0.00 0.00 0.00 92 1018.1
20260831024547 72 0.0 0.0 0.00 0.00 0.00 92 1018.2
20260831023527 72 0.0 0.0 0.00 0.00 0.00 92 1018.4
20260831022527 72 0.0 0.0 0.00 0.00 0.00 92 1018.1
20260831021527 72 0.0 0.0 0.00 0.00 0.00 92 1018.1
20260831020528 72 0.0 0.0 0.00 0.00 0.00 92 1018.0
20260831015527 72 0.0 0.0 0.00 0.00 0.00 92 1018.0
20260831014527 73 0.0 0.0 0.00 0.00 0.00 92 1017.9
20260831013549 73 0.0 0.0 0.00 0.00 0.00 91 1018.0
20260831012527 73 0.0 0.0 0.00 0.00 0.00 91 1018.0
20260831011547 73 0.0 0.0 0.00 0.00 0.00 91 1018.0
20260831010527 73 0.0 0.0 0.00 0.00 0.00 91 1017.8
20260831005528 74 0.0 0.0 0.00 0.00 0.00 90 1017.8
20260831004527 74 0.0 0.0 0.00 0.00 0.00 90 1017.7
20260831003527 74 0.0 0.0 0.00 0.00 0.00 89 1017.6
20260831002527 74 0.0 0.0 0.00 0.00 0.00 88 1017.4
20260831001527 74 0.0 0.0 0.00 0.00 0.00 88 1017.2
20260831000547 74 0.0 0.0 0.00 0.00 0.00 86 1017.1
20260830235527 75 0.0 0.0 0.00 0.00 0.00 85 1017.2
20260830234528 76 0.0 0.0 0.00 0.00 0.00 82 1017.2
20260830233528 78 0.0 0.0 0.00 0.00 0.00 79 1017.5
20260830232527 80 0.0 0.0 0.00 0.00 0.00 76 1017.8
20260830231527 81 0.0 0.0 0.00 0.00 0.00 73 1017.9
20260830230532 82 0.0 0.0 0.00 0.00 0.00 75 1017.9
20260830225526 82 0.0 0.0 0.00 0.00 0.00 76 1017.7
20260830224527 83 0.0 0.0 0.00 0.00 0.00 75 1017.4
20260830223527 83 0.0 0.0 0.00 0.00 0.00 74 1017.3
20260830222527 83 0.0 0.0 0.00 0.00 0.00 74 1017.0
20260830221527 84 0.0 0.0 0.00 0.00 0.00 73 1017.0
20260830220528 84 0.0 0.0 0.00 0.00 0.00 71 1017.1
20260830215527 85 0.0 0.0 0.00 0.00 0.00 70 1017.1
20260830214527 86 0.0 0.0 0.00 0.00 0.00 70 1017.0
20260830213527 86 0.0 0.0 0.00 0.00 0.00 67 1017.1
20260830212527 87 0.0 0.0 0.00 0.00 0.00 67 1017.0
20260830211527 87 0.0 0.0 0.00 0.00 0.00 69 1017.0
20260830210547 87 0.0 0.0 0.00 0.00 0.00 67 1016.9
20260830205527 87 0.0 0.0 0.00 0.00 0.00 67 1016.9
20260830204530 87 0.0 0.0 0.00 0.00 0.00 68 1016.9
20260830203527 88 0.0 0.0 0.00 0.00 0.00 65 1016.9
20260830202546 89 0.0 0.0 0.00 0.00 0.00 66 1017.0
20260830201529 89 0.0 0.0 0.00 0.00 0.00 67 1017.1
20260830200527 89 0.0 0.0 0.00 0.00 0.00 65 1017.2
20260830195549 89 0.0 0.0 0.00 0.00 0.00 64 1017.3
20260830194528 88 0.0 0.0 0.00 0.00 0.00 66 1017.4
20260830193549 88 0.0 0.0 0.00 0.00 0.00 66 1017.4
20260830192530 88 0.0 0.0 0.00 0.00 0.00 66 1017.5
20260830191528 89 0.0 0.0 0.00 0.00 0.00 65 1017.7
20260830190527 89 0.0 0.0 0.00 0.00 0.00 63 1018.2
20260830184529 89 0.0 0.0 0.00 0.00 0.00 65 1018.7
20260830183528 88 0.0 0.0 0.00 0.00 0.00 64 1018.8
20260830182529 88 0.0 0.0 0.00 0.00 0.00 65 1019.0
20260830181528 88 0.0 0.0 0.00 0.00 0.00 68 1019.0
20260830180528 87 0.0 0.0 0.00 0.00 0.00 68 1019.2
20260830175528 87 0.0 0.0 0.00 0.00 0.00 68 1019.4
20260830174531 88 0.0 0.0 0.00 0.00 0.00 67 1019.6
20260830173549 87 0.0 0.0 0.00 0.00 0.00 67 1019.7
20260830172528 87 0.0 0.0 0.00 0.00 0.00 67 1019.8
20260830171528 87 0.0 0.0 0.00 0.00 0.00 67 1020.0
20260830170528 87 0.0 0.0 0.00 0.00 0.00 70 1020.1
20260830165548 86 0.0 0.0 0.00 0.00 0.00 70 1020.3
20260830164528 86 0.0 0.0 0.00 0.00 0.00 71 1020.3
20260830163528 84 0.0 0.0 0.00 0.00 0.00 72 1020.4
20260830162528 84 0.0 0.0 0.00 0.00 0.00 71 1020.6
20260830161528 84 0.0 0.0 0.00 0.00 0.00 72 1020.7
20260830160527 84 0.0 0.0 0.00 0.00 0.00 74 1020.6
20260830155528 85 0.0 0.0 0.00 0.00 0.00 73 1020.8
20260830154528 85 0.0 0.0 0.00 0.00 0.00 70 1020.7
20260830153529 85 0.0 0.0 0.00 0.00 0.00 74 1020.8
20260830152528 84 0.0 0.0 0.00 0.00 0.00 74 1020.9
20260830151548 83 0.0 0.0 0.00 0.00 0.00 73 1020.9
20260830150529 83 0.0 0.0 0.00 0.00 0.00 77 1020.8
20260830145528 82 0.0 0.0 0.00 0.00 0.00 78 1020.8
20260830144528 81 0.0 0.0 0.00 0.00 0.00 80 1020.7
20260830143528 80 0.0 0.0 0.00 0.00 0.00 82 1020.8
20260830142529 79 0.0 0.0 0.00 0.00 0.00 85 1020.8
20260830141528 78 0.0 0.0 0.00 0.00 0.00 87 1021.0
20260830140528 78 0.0 0.0 0.00 0.00 0.00 86 1021.0
20260830135529 78 0.0 0.0 0.00 0.00 0.00 86 1021.0
20260830134529 78 0.0 0.0 0.00 0.00 0.00 88 1021.0
20260830133529 76 0.0 0.0 0.00 0.00 0.00 91 1021.1
20260830132528 75 0.0 0.0 0.00 0.00 0.00 92 1021.2
20260830131528 73 0.0 0.0 0.00 0.00 0.00 90 1021.2
20260830130608 73 0.0 0.0 0.00 0.00 0.00 86 1021.5
20260830125528 72 0.0 0.0 0.00 0.00 0.00 81 1021.5
20260830124529 71 0.0 0.0 0.00 0.00 0.00 74 1021.6
20260830123609 71 0.0 0.0 0.00 0.00 0.00 68 1021.5
20260830122528 71 0.0 0.0 0.00 0.00 0.00 67 1021.7
20260830121528 70 0.0 0.0 0.00 0.00 0.00 64 1021.7
20260830120528 70 0.0 0.0 0.00 0.00 0.00 62 1021.7
20260830115528 70 0.0 0.0 0.00 0.00 0.00 59 1021.8
20260830114528 70 0.0 0.0 0.00 0.00 0.00 59 1021.8
20260830113519 0 0.0 0.0 0.00 0.00 0.00
20260830113115 0 0.0 0.0 0.00 0.00 0.00
20260830112546 0 0.0 0.0 0.00 0.00 0.00
20260830111526 0 0.0 0.0 0.00 0.00 0.00
20260830111041 0 0.0 0.0 0.00 0.00 0.00
20260830110618 0 0.0 0.0 0.00 0.00 0.00
20260830110026 0 0.0 0.0 0.00 0.00 0.00
20260830105026 0 0.0 0.0 0.00 0.00 0.00
20260830104519 0 0.0 0.0 0.00 0.00 0.00
20260830104115 0 0.0 0.0 0.00 0.00 0.00
20260830103525 0 0.0 0.0 0.00 0.00 0.00
20260830102526 0 0.0 0.0 0.00 0.00 0.00
20260830102048 0 0.0 0.0 0.00 0.00 0.00
20260830101523 0 0.0 0.0 0.00 0.00 0.00
20260830101027 0 0.0 0.0 0.00 0.00 0.00
20260830100026 0 0.0 0.0 0.00 0.00 0.00
20260830095545 0 0.0 0.0 0.00 0.00 0.00
20260830095101 0 0.0 0.0 0.00 0.00 0.00
20260830094526 0 0.0 0.0 0.00 0.00 0.00
20260830093526 0 0.0 0.0 0.00 0.00 0.00
20260830093109 0 0.0 0.0 0.00 0.00 0.00
20260830092604 0 0.0 0.0 0.00 0.00 0.00
20260830092026 0 0.0 0.0 0.00 0.00 0.00
20260830091026 0 0.0 0.0 0.00 0.00 0.00
20260830090606 0 0.0 0.0 0.00 0.00 0.00
20260830090041 0 0.0 0.0 0.00 0.00 0.00